SCP
0 0 0 0 0 0 0 0 0 0 0 0 0 0 0 0 0 0 0 0 0 0 0 0 0 0 0 0 0 0 0 0
0 0 0 0 0 0 0 0 0 0 0 0 0 0 0 0 0 0 0 0 0 0 0 0 0 0 0 0 0 0 0 0
0 0 0 0 0 0 0 0 0 0 0 0 0 0 0 0 0 0 0 0 0 0 0 0 0 0 0 0 0 0 0 0
0 0 0 0 0 0 0 0 0 0 0 0 0 0 0 0 0 0 0 0 0 0 0 0 0 0 0 0 0 0 0 0
0 0 0 0 0 0 0 0 0 0 0 0 0 0 0 0 0 0 0 0 0 0 0 0 0 0 0 0 0 0 0 0
0 0 0 0 0 0 0 0 0 0 0 0 0 0 0 0 0 0 0 0 0 0 0 0 0 0 0 0 0 0 0 0
0 0 0 0 0 0 0 0 0 0 0 0 0 0 0 0 0 0 0 0 0 0 0 0 0 0 0 0 0 0 0 0
0 0 0 0 0 0 0 0 0 0 0 0 0 0 0 0 0 0 0 0 0 0 0 0 0 0 0 0 0 0 0 0
0 0 0 0 0 0 0 0 0 0 0 0 0 0 0 0 0 0 0 0 0 0 0 0 0 0 0 0 0 0 0 0
0 0 0 0 0 0 0 0 0 0 0 0 0 0 0 0 0 0 0 0 0 0 0 0 0 0 0 0 0 0 0 0
0 0 0 0 0 0 0 0 0 0 0 0 0 0 0 0 0 0 0 0 0 0 0 0 0 0 0 0 0 0 0 0
0 0 0 0 0 0 0 0 0 0 0 0 0 0 0 0 0 0 0 0 0 0 0 0 0 0 0 0 0 0 0 0
0 0 0 0 0 0 0 0 0 0 0 0 0 0 0 0 0 0 0 0 0 0 0 0 0 0 0 0 0 0 0 0
0 0 0 0 0 0 0 0 0 0 0 0 0 0 0 0 0 0 0 0 0 0 0 0 0 0 0 0 0 0 0 0
0 0 0 0 0 0 0 0 0 0 0 0 0 0 0 0 0 0 0 0 0 0 0 0 0 0 0 0 0 0 0 0
0 0 0 0 0 0 0 0 0 0 0 0 0 0 0 0 0 0 0 0 0 0 0 0 0 0 0 0 0 0 0 0
0 0 0 0 0 0 0 0 0 0 0 0 0 0 0 0 0 0 0 0 0 0 0 0 0 0 0 0 0 0 0 0
0 0 0 0 0 0 0 0 0 0 0 0 0 0 0 0 0 0 0 0 0 0 0 0 0 0 0 0 0 0 0 0
0 0 0 0 0 0 0 0 0 0 0 0 0 0 0 0 0 0 0 0 0 0 0 0 0 0 0 0 0 0 0 0
0 0 0 0 0 0 0 0 0 0 0 0 0 0 0 0 0 0 0 0 0 0 0 0 0 0 0 0 0 0 0 0
Wind_Speed_500mb
22 21 21 20 19 17 13 10 6 3 1 2 4 4 5 7 7 8 13 19 23 25 27 27 28 29 28 25 22 18 15 13
25 24 24 23 20 17 14 11 7 4 3 4 6 7 8 9 10 11 12 15 18 21 24 26 27 25 22 19 18 16 14 14
27 28 26 25 23 19 14 9 5 2 4 6 9 10 10 10 10 11 12 14 16 18 21 21 20 19 18 18 19 20 21 20
32 30 28 23 19 13 9 4 2 7 10 12 11 11 12 12 12 12 12 13 14 15 17 18 18 19 20 21 22 22 22 23
31 29 26 22 16 14 11 8 10 14 17 18 17 16 15 15 15 15 16 17 18 18 18 18 20 21 22 23 23 24 26 27
33 30 27 26 25 22 18 15 16 19 19 17 16 16 16 16 16 16 17 19 19 20 21 22 23 23 23 23 24 26 28 30
36 31 29 29 31 29 26 21 21 21 21 18 18 19 21 21 20 20 20 21 22 23 24 25 26 27 28 28 29 30 31 32
47 43 34 30 35 39 33 29 29 27 24 22 23 23 24 24 24 24 24 24 24 25 26 28 31 33 31 29 29 29 30 30
53 59 57 36 38 44 38 34 33 30 26 25 22 20 20 23 25 27 28 29 29 29 29 30 34 34 30 29 29 28 28 29
64 51 58 60 37 45 39 39 37 31 27 23 18 17 20 24 27 30 32 33 33 32 32 33 36 34 30 28 27 26 25 23
65 67 54 54 53 50 44 42 36 30 26 21 19 20 24 26 28 29 31 32 32 32 32 34 34 34 28 25 23 22 21 19
36 47 45 42 46 44 43 39 34 28 23 19 20 22 25 27 29 31 32 32 32 32 31 32 32 31 24 19 18 17 17 16
23 26 33 37 39 39 36 33 26 22 20 20 23 26 27 28 30 31 31 31 31 31 31 30 30 27 24 19 17 16 16 15
14 19 28 32 33 30 27 22 19 19 22 26 28 30 31 29 28 29 30 31 31 31 31 30 28 24 21 16 16 17 14 13
14 20 23 24 24 22 20 21 24 26 28 30 31 29 28 28 27 28 29 30 31 31 29 27 25 25 23 19 16 16 15 19
13 12 15 19 22 25 27 28 28 30 32 32 29 27 25 25 25 25 26 27 28 27 27 26 27 25 22 17 15 19 22 17
20 21 22 25 29 32 33 34 35 36 35 31 29 28 27 26 25 24 24 24 26 25 23 24 24 21 22 19 21 23 12 10
37 33 34 35 37 40 40 40 39 36 35 34 32 30 27 27 25 22 18 19 18 18 19 20 19 18 16 18 14 9 11 10
44 44 45 45 41 42 43 42 40 38 37 36 34 31 29 28 26 23 17 13 14 21 19 18 16 14 14 13 11 12 14 14
51 51 50 48 46 49 48 45 44 41 39 36 34 31 30 28 28 24 22 20 18 17 22 21 18 13 11 13 14 13 14 14
Wind_Direction_500mb
185 178 174 167 166 165 165 164 164 176 179 310 308 315 304 294 281 260 242 238 239 243 247 250 252 256 255 251 246 240 240 249
192 184 175 168 163 158 147 136 121 90 41 343 317 316 311 299 289 275 264 256 252 252 255 258 260 257 251 241 234 233 237 245
193 184 178 168 163 157 144 127 104 46 354 338 330 323 311 307 300 291 280 270 263 260 259 255 249 243 239 238 240 244 245 246
193 188 179 175 173 164 151 141 347 326 321 312 304 301 300 297 289 283 280 273 264 256 249 245 241 238 239 243 248 252 255 263
200 192 190 194 197 204 213 248 285 297 296 290 287 289 290 289 286 281 276 269 264 260 255 251 248 248 250 255 261 265 271 276
203 198 205 215 219 218 223 250 275 284 284 281 284 285 285 286 286 283 275 269 265 263 261 259 259 261 264 268 274 280 284 287
219 216 219 226 227 224 230 255 266 268 266 269 279 287 290 288 287 287 285 280 273 269 269 271 274 278 284 290 290 291 291 293
236 230 229 234 233 229 234 253 255 250 250 261 270 277 281 283 284 282 279 277 276 275 274 275 275 276 279 285 288 285 283 282
250 241 232 232 230 227 234 250 238 231 239 252 257 265 274 280 280 278 275 272 270 270 272 275 278 284 291 294 293 288 284 280
272 264 249 238 242 231 243 235 225 224 233 234 247 266 278 280 278 276 273 272 271 273 275 276 279 284 288 289 287 284 281 279
264 262 259 244 242 229 232 221 217 222 225 235 252 273 281 280 275 271 267 265 263 263 265 266 270 274 281 285 284 281 276 273
271 250 249 240 226 222 215 211 214 219 232 252 275 285 285 282 278 272 268 264 263 262 263 264 265 271 278 271 269 264 261 258
268 239 225 215 214 209 205 208 214 227 251 273 287 288 285 281 277 273 269 265 262 259 256 254 258 264 266 264 259 253 239 239
232 211 206 201 195 195 202 213 231 257 275 284 284 283 280 276 274 271 267 264 261 256 254 252 253 258 263 257 246 243 229 232
206 167 172 184 192 202 220 244 258 268 276 280 281 281 281 278 274 270 268 267 265 261 256 252 248 245 243 246 240 226 251 269
216 214 201 211 223 235 248 258 268 277 283 282 279 276 275 275 273 268 264 262 259 255 247 242 238 237 243 246 241 254 264 259
262 254 251 251 254 260 266 273 279 282 281 275 269 270 272 272 269 268 263 257 252 247 235 234 234 233 237 235 250 263 232 221
268 269 269 271 268 266 266 268 270 270 268 264 261 262 264 262 259 256 258 251 235 226 225 222 242 240 234 257 243 220 215 188
267 272 272 270 269 267 267 267 267 265 262 257 256 256 255 248 240 234 236 217 204 207 208 220 230 238 244 219 209 197 183 177
275 277 275 271 268 266 266 266 265 263 258 254 251 249 244 235 229 225 217 209 210 205 189 197 231 231 210 202 176 174 175 172
Wind_Speed_850mb
22 21 21 20 19 17 13 10 6 3 1 2 4 4 5 7 7 8 13 19 23 25 27 27 28 29 28 25 22 18 15 13
25 24 24 23 20 17 14 11 7 4 3 4 6 7 8 9 10 11 12 15 18 21 24 26 27 25 22 19 18 16 14 14
27 28 26 25 23 19 14 9 5 2 4 6 9 10 10 10 10 11 12 14 16 18 21 21 20 19 18 18 19 20 21 20
32 30 28 23 19 13 9 4 2 7 10 12 11 11 12 12 12 12 12 13 14 15 17 18 18 19 20 21 22 22 22 23
31 29 26 22 16 14 11 8 10 14 17 18 17 16 15 15 15 15 16 17 18 18 18 18 20 21 22 23 23 24 26 27
33 30 27 26 25 22 18 15 16 19 19 17 16 16 16 16 16 16 17 19 19 20 21 22 23 23 23 23 24 26 28 30
36 31 29 29 31 29 26 21 21 21 21 18 18 19 21 21 20 20 20 21 22 23 24 25 26 27 28 28 29 30 31 32
47 43 34 30 35 39 33 29 29 27 24 22 23 23 24 24 24 24 24 24 24 25 26 28 31 33 31 29 29 29 30 30
53 59 57 36 38 44 38 34 33 30 26 25 22 20 20 23 25 27 28 29 29 29 29 30 34 34 30 29 29 28 28 29
64 51 58 60 37 45 39 39 37 31 27 23 18 17 20 24 27 30 32 33 33 32 32 33 36 34 30 28 27 26 25 23
65 67 54 54 53 50 44 42 36 30 26 21 19 20 24 26 28 29 31 32 32 32 32 34 34 34 28 25 23 22 21 19
36 47 45 42 46 44 43 39 34 28 23 19 20 22 25 27 29 31 32 32 32 32 31 32 32 31 24 19 18 17 17 16
23 26 33 37 39 39 36 33 26 22 20 20 23 26 27 28 30 31 31 31 31 31 31 30 30 27 24 19 17 16 16 15
14 19 28 32 33 30 27 22 19 19 22 26 28 30 31 29 28 29 30 31 31 31 31 30 28 24 21 16 16 17 14 13
14 20 23 24 24 22 20 21 24 26 28 30 31 29 28 28 27 28 29 30 31 31 29 27 25 25 23 19 16 16 15 19
13 12 15 19 22 25 27 28 28 30 32 32 29 27 25 25 25 25 26 27 28 27 27 26 27 25 22 17 15 19 22 17
20 21 22 25 29 32 33 34 35 36 35 31 29 28 27 26 25 24 24 24 26 25 23 24 24 21 22 19 21 23 12 10
37 33 34 35 37 40 40 40 39 36 35 34 32 30 27 27 25 22 18 19 18 18 19 20 19 18 16 18 14 9 11 10
44 44 45 45 41 42 43 42 40 38 37 36 34 31 29 28 26 23 17 13 14 21 19 18 16 14 14 13 11 12 14 14
51 51 50 48 46 49 48 45 44 41 39 36 34 31 30 28 28 24 22 20 18 17 22 21 18 13 11 13 14 13 14 14
Wind_Direction_850mb
185 178 174 167 166 165 165 164 164 176 179 310 308 315 304 294 281 260 242 238 239 243 247 250 252 256 255 251 246 240 240 249
192 184 175 168 163 158 147 136 121 90 41 343 317 316 311 299 289 275 264 256 252 252 255 258 260 257 251 241 234 233 237 245
193 184 178 168 163 157 144 127 104 46 354 338 330 323 311 307 300 291 280 270 263 260 259 255 249 243 239 238 240 244 245 246
193 188 179 175 173 164 151 141 347 326 321 312 304 301 300 297 289 283 280 273 264 256 249 245 241 238 239 243 248 252 255 263
200 192 190 194 197 204 213 248 285 297 296 290 287 289 290 289 286 281 276 269 264 260 255 251 248 248 250 255 261 265 271 276
203 198 205 215 219 218 223 250 275 284 284 281 284 285 285 286 286 283 275 269 265 263 261 259 259 261 264 268 274 280 284 287
219 216 219 226 227 224 230 255 266 268 266 269 279 287 290 288 287 287 285 280 273 269 269 271 274 278 284 290 290 291 291 293
236 230 229 234 233 229 234 253 255 250 250 261 270 277 281 283 284 282 279 277 276 275 274 275 275 276 279 285 288 285 283 282
250 241 232 232 230 227 234 250 238 231 239 252 257 265 274 280 280 278 275 272 270 270 272 275 278 284 291 294 293 288 284 280
272 264 249 238 242 231 243 235 225 224 233 234 247 266 278 280 278 276 273 272 271 273 275 276 279 284 288 289 287 284 281 279
264 262 259 244 242 229 232 221 217 222 225 235 252 273 281 280 275 271 267 265 263 263 265 266 270 274 281 285 284 281 276 273
271 250 249 240 226 222 215 211 214 219 232 252 275 285 285 282 278 272 268 264 263 262 263 264 265 271 278 271 269 264 261 258
268 239 225 215 214 209 205 208 214 227 251 273 287 288 285 281 277 273 269 265 262 259 256 254 258 264 266 264 259 253 239 239
232 211 206 201 195 195 202 213 231 257 275 284 284 283 280 276 274 271 267 264 261 256 254 252 253 258 263 257 246 243 229 232
206 167 172 184 192 202 220 244 258 268 276 280 281 281 281 278 274 270 268 267 265 261 256 252 248 245 243 246 240 226 251 269
216 214 201 211 223 235 248 258 268 277 283 282 279 276 275 275 273 268 264 262 259 255 247 242 238 237 243 246 241 254 264 259
262 254 251 251 254 260 266 273 279 282 281 275 269 270 272 272 269 268 263 257 252 247 235 234 234 233 237 235 250 263 232 221
268 269 269 271 268 266 266 268 270 270 268 264 261 262 264 262 259 256 258 251 235 226 225 222 242 240 234 257 243 220 215 188
267 272 272 270 269 267 267 267 267 265 262 257 256 256 255 248 240 234 236 217 204 207 208 220 230 238 244 219 209 197 183 177
275 277 275 271 268 266 266 266 265 263 258 254 251 249 244 235 229 225 217 209 210 205 189 197 231 231 210 202 176 174 175 172